Terminal Aerodrome Forecast
Issued by NWS Corpus Christi, TX

Home | Current Version | Previous Version | Text Only | Print | Product List | Glossary On
Versions: 1 2 3 4 5 6 7 8 9 10 11 12 13 14 15 16 17
000
FTUS44 KCRP 192300
TAFCRP
TAF
KCRP 192330Z 2000/2024 35011KT P6SM BKN015
     FM200400 01013KT 6SM BR OVC015
     FM201600 02012KT P6SM SCT018 BKN080=

USA.gov is the U.S. government's official web portal to all federal, state and local government web resources and services.